QPF
0.00 0.00 0.00 0.00 0.00 0.00 0.00 0.00 0.00 0.00 0.00 0.00 0.00 0.00 0.00 0.00 0.01 0.02 0.03 0.04 0.06 0.09 0.11 0.14 0.16 0.15 0.18 0.17 0.14 0.12 0.16 0.15 0.10 0.07 0.05 0.04 0.02 0.01 0.00 0.00 0.00 0.00 0.00 0.00
0.00 0.00 0.00 0.00 0.00 0.00 0.00 0.00 0.00 0.00 0.00 0.00 0.00 0.00 0.00 0.00 0.00 0.00 0.02 0.03 0.04 0.05 0.08 0.10 0.11 0.13 0.16 0.16 0.14 0.12 0.14 0.12 0.10 0.08 0.06 0.04 0.02 0.01 0.00 0.00 0.00 0.00 0.00 0.00
0.00 0.00 0.00 0.00 0.00 0.00 0.00 0.00 0.00 0.00 0.00 0.00 0.00 0.01 0.01 0.01 0.00 0.00 0.02 0.03 0.03 0.03 0.05 0.07 0.09 0.09 0.12 0.12 0.13 0.13 0.12 0.11 0.11 0.09 0.05 0.03 0.01 0.00 0.00 0.00 0.00 0.00 0.00 0.00
0.00 0.00 0.00 0.00 0.00 0.00 0.00 0.00 0.00 0.00 0.00 0.01 0.01 0.01 0.01 0.01 0.00 0.00 0.01 0.02 0.01 0.02 0.03 0.05 0.07 0.08 0.08 0.10 0.10 0.12 0.10 0.10 0.08 0.08 0.06 0.03 0.02 0.01 0.01 0.00 0.00 0.00 0.00 0.00
0.00 0.00 0.00 0.00 0.00 0.00 0.00 0.00 0.00 0.00 0.01 0.04 0.04 0.02 0.01 0.00 0.01 0.00 0.01 0.02 0.02 0.02 0.02 0.05 0.06 0.07 0.07 0.09 0.07 0.07 0.07 0.07 0.06 0.06 0.06 0.04 0.02 0.02 0.01 0.00 0.00 0.00 0.00 0.00
0.00 0.00 0.00 0.00 0.00 0.00 0.00 0.00 0.00 0.02 0.04 0.13 0.08 0.02 0.01 0.00 0.00 0.00 0.00 0.01 0.01 0.01 0.02 0.05 0.08 0.10 0.08 0.09 0.06 0.04 0.03 0.03 0.04 0.04 0.04 0.03 0.03 0.03 0.02 0.01 0.01 0.00 0.00 0.00
0.00 0.00 0.00 0.00 0.00 0.00 0.00 0.00 0.01 0.03 0.09 0.14 0.05 0.02 0.01 0.01 0.00 0.00 0.00 0.00 0.00 0.01 0.01 0.03 0.05 0.06 0.07 0.06 0.05 0.03 0.02 0.02 0.02 0.03 0.03 0.03 0.03 0.03 0.02 0.02 0.01 0.00 0.00 0.00
0.00 0.00 0.00 0.00 0.00 0.00 0.00 0.00 0.01 0.02 0.03 0.03 0.03 0.03 0.02 0.01 0.00 0.00 0.00 0.00 0.00 0.00 0.00 0.01 0.02 0.02 0.03 0.03 0.04 0.04 0.02 0.01 0.02 0.02 0.03 0.03 0.03 0.02 0.02 0.02 0.02 0.00 0.00 0.00
0.00 0.00 0.00 0.00 0.00 0.00 0.00 0.00 0.00 0.00 0.00 0.01 0.04 0.06 0.04 0.02 0.00 0.00 0.00 0.00 0.00 0.00 0.00 0.01 0.01 0.01 0.01 0.01 0.03 0.03 0.02 0.02 0.02 0.03 0.03 0.02 0.02 0.02 0.03 0.02 0.01 0.00 0.00 0.00
0.00 0.00 0.00 0.00 0.00 0.00 0.00 0.00 0.00 0.00 0.00 0.02 0.04 0.08 0.13 0.09 0.02 0.00 0.00 0.00 0.00 0.00 0.00 0.00 0.00 0.00 0.00 0.00 0.01 0.02 0.01 0.01 0.02 0.02 0.02 0.01 0.02 0.02 0.02 0.02 0.01 0.01 0.00 0.00
0.00 0.00 0.00 0.00 0.01 0.00 0.00 0.00 0.00 0.00 0.00 0.01 0.04 0.06 0.08 0.06 0.02 0.00 0.00 0.00 0.00 0.00 0.00 0.00 0.00 0.00 0.00 0.01 0.01 0.00 0.00 0.01 0.01 0.01 0.02 0.02 0.02 0.02 0.01 0.01 0.01 0.01 0.01 0.00
0.00 0.00 0.00 0.01 0.01 0.01 0.01 0.00 0.00 0.00 0.00 0.00 0.01 0.03 0.03 0.02 0.03 0.01 0.00 0.00 0.00 0.00 0.00 0.00 0.00 0.00 0.00 0.00 0.00 0.00 0.00 0.00 0.00 0.01 0.01 0.02 0.02 0.02 0.02 0.02 0.02 0.02 0.01 0.01
0.00 0.00 0.00 0.01 0.02 0.04 0.02 0.00 0.00 0.00 0.00 0.00 0.01 0.02 0.02 0.03 0.06 0.02 0.00 0.00 0.01 0.00 0.00 0.00 0.00 0.00 0.00 0.00 0.00 0.00 0.00 0.00 0.00 0.00 0.01 0.02 0.03 0.03 0.04 0.04 0.02 0.02 0.02 0.01
0.00 0.00 0.00 0.02 0.06 0.09 0.06 0.01 0.00 0.00 0.00 0.00 0.01 0.01 0.02 0.09 0.13 0.04 0.01 0.01 0.00 0.00 0.00 0.00 0.00 0.00 0.00 0.00 0.00 0.00 0.00 0.00 0.00 0.01 0.02 0.04 0.04 0.04 0.03 0.03 0.03 0.03 0.02 0.02
0.00 0.00 0.00 0.00 0.02 0.02 0.02 0.01 0.01 0.00 0.00 0.00 0.00 0.01 0.02 0.04 0.04 0.03 0.00 0.00 0.00 0.00 0.01 0.01 0.02 0.01 0.01 0.01 0.01 0.01 0.01 0.02 0.03 0.05 0.08 0.07 0.06 0.06 0.05 0.05 0.05 0.04 0.03 0.03
0.01 0.00 0.00 0.00 0.00 0.01 0.01 0.00 0.00 0.00 0.00 0.00 0.00 0.01 0.01 0.03 0.04 0.01 0.00 0.00 0.00 0.01 0.01 0.02 0.02 0.02 0.02 0.02 0.04 0.04 0.03 0.03 0.04 0.08 0.11 0.12 0.12 0.11 0.10 0.09 0.08 0.07 0.05 0.04
0.03 0.01 0.00 0.00 0.00 0.00 0.00 0.00 0.00 0.00 0.00 0.00 0.01 0.01 0.02 0.04 0.04 0.01 0.00 0.00 0.00 0.00 0.01 0.02 0.02 0.03 0.02 0.01 0.02 0.02 0.03 0.03 0.05 0.07 0.07 0.09 0.12 0.15 0.15 0.11 0.10 0.10 0.09 0.07
0.07 0.04 0.02 0.01 0.01 0.02 0.01 0.00 0.00 0.00 0.00 0.00 0.02 0.03 0.03 0.04 0.02 0.01 0.00 0.00 0.00 0.01 0.01 0.02 0.03 0.03 0.04 0.05 0.05 0.04 0.04 0.05 0.06 0.08 0.08 0.08 0.11 0.15 0.14 0.10 0.09 0.09 0.09 0.09
0.11 0.09 0.05 0.03 0.02 0.02 0.02 0.01 0.01 0.00 0.00 0.01 0.02 0.05 0.07 0.03 0.02 0.01 0.00 0.00 0.01 0.01 0.01 0.01 0.02 0.03 0.05 0.08 0.06 0.06 0.08 0.11 0.10 0.10 0.11 0.10 0.13 0.12 0.09 0.07 0.07 0.06 0.06 0.06
0.10 0.10 0.09 0.04 0.04 0.05 0.03 0.05 0.04 0.03 0.04 0.01 0.01 0.02 0.05 0.07 0.08 0.06 0.01 0.01 0.01 0.01 0.01 0.01 0.02 0.03 0.05 0.07 0.09 0.08 0.07 0.09 0.09 0.09 0.11 0.09 0.09 0.11 0.09 0.07 0.06 0.05 0.05 0.05
0.05 0.04 0.04 0.03 0.03 0.03 0.03 0.05 0.05 0.07 0.08 0.01 0.01 0.04 0.05 0.05 0.06 0.05 0.02 0.01 0.00 0.00 0.01 0.01 0.02 0.02 0.03 0.04 0.04 0.04 0.05 0.05 0.06 0.06 0.06 0.06 0.06 0.06 0.05 0.05 0.05 0.04 0.04 0.04
0.10 0.07 0.04 0.02 0.06 0.09 0.07 0.06 0.08 0.10 0.03 0.00 0.00 0.01 0.03 0.06 0.06 0.03 0.01 0.00 0.00 0.00 0.00 0.01 0.01 0.01 0.01 0.02 0.02 0.03 0.04 0.04 0.04 0.04 0.04 0.03 0.03 0.02 0.02 0.03 0.03 0.02 0.03 0.03
0.22 0.18 0.14 0.09 0.10 0.08 0.06 0.09 0.11 0.09 0.04 0.00 0.00 0.00 0.01 0.03 0.03 0.02 0.01 0.01 0.01 0.00 0.00 0.00 0.00 0.00 0.00 0.01 0.01 0.02 0.03 0.03 0.03 0.03 0.02 0.02 0.01 0.01 0.00 0.00 0.01 0.01 0.01 0.01
0.24 0.17 0.16 0.17 0.16 0.12 0.08 0.07 0.07 0.04 0.01 0.00 0.00 0.00 0.01 0.02 0.03 0.03 0.03 0.02 0.02 0.02 0.01 0.01 0.01 0.01 0.01 0.01 0.01 0.01 0.01 0.01 0.01 0.01 0.01 0.01 0.01 0.01 0.01 0.01 0.01 0.01 0.01 0.01
0.19 0.12 0.10 0.15 0.19 0.19 0.12 0.07 0.05 0.02 0.01 0.01 0.00 0.01 0.01 0.03 0.06 0.06 0.06 0.04 0.04 0.04 0.03 0.02 0.02 0.02 0.01 0.01 0.01 0.01 0.01 0.01 0.01 0.01 0.00 0.01 0.01 0.00 0.00 0.00 0.00 0.00 0.00 0.00
0.06 0.07 0.10 0.13 0.10 0.10 0.10 0.03 0.01 0.01 0.01 0.01 0.02 0.03 0.04 0.05 0.06 0.06 0.06 0.05 0.05 0.05 0.04 0.03 0.03 0.03 0.03 0.03 0.03 0.02 0.01 0.01 0.01 0.01 0.01 0.01 0.00 0.00 0.00 0.00 0.00 0.00 0.00 0.00
MSLP
1009.01 1009.14 1009.02 1008.71 1008.32 1007.92 1007.60 1007.40 1007.33 1007.36 1007.44 1007.52 1007.55 1007.53 1007.45 1007.37 1007.35 1007.43 1007.65 1008.04 1008.59 1009.25 1009.96 1010.68 1011.34 1011.91 1012.37 1012.75 1013.05 1013.32 1013.59 1013.89 1014.21 1014.56 1014.93 1015.30 1015.64 1015.94 1016.21 1016.43 1016.61 1016.78 1016.92 1017.07
1009.25 1009.19 1008.89 1008.45 1007.96 1007.56 1007.32 1007.27 1007.39 1007.63 1007.90 1008.12 1008.24 1008.23 1008.12 1007.96 1007.84 1007.83 1007.99 1008.35 1008.89 1009.56 1010.31 1011.04 1011.70 1012.24 1012.65 1012.95 1013.18 1013.38 1013.59 1013.85 1014.17 1014.54 1014.93 1015.31 1015.67 1015.97 1016.22 1016.43 1016.60 1016.76 1016.93 1017.11
1009.30 1009.07 1008.62 1008.06 1007.55 1007.19 1007.07 1007.19 1007.53 1007.97 1008.41 1008.76 1008.94 1008.92 1008.75 1008.50 1008.27 1008.16 1008.24 1008.55 1009.08 1009.76 1010.52 1011.27 1011.92 1012.43 1012.79 1013.02 1013.18 1013.31 1013.48 1013.72 1014.05 1014.44 1014.86 1015.28 1015.66 1015.98 1016.22 1016.41 1016.56 1016.71 1016.88 1017.08
1009.11 1008.74 1008.19 1007.59 1007.10 1006.84 1006.88 1007.20 1007.75 1008.38 1008.98 1009.42 1009.62 1009.57 1009.32 1008.95 1008.60 1008.38 1008.38 1008.65 1009.16 1009.85 1010.63 1011.39 1012.04 1012.53 1012.85 1013.03 1013.13 1013.21 1013.35 1013.57 1013.91 1014.33 1014.80 1015.26 1015.67 1016.00 1016.24 1016.40 1016.53 1016.65 1016.81 1017.01
1008.67 1008.22 1007.63 1007.06 1006.66 1006.55 1006.78 1007.31 1008.06 1008.86 1009.58 1010.07 1010.26 1010.15 1009.79 1009.29 1008.82 1008.50 1008.43 1008.65 1009.16 1009.87 1010.68 1011.46 1012.13 1012.62 1012.92 1013.06 1013.11 1013.15 1013.26 1013.48 1013.83 1014.27 1014.77 1015.27 1015.71 1016.05 1016.28 1016.43 1016.52 1016.61 1016.74 1016.93
1008.04 1007.55 1006.99 1006.51 1006.27 1006.35 1006.78 1007.52 1008.44 1009.38 1010.16 1010.66 1010.81 1010.61 1010.13 1009.52 1008.93 1008.52 1008.39 1008.59 1009.10 1009.84 1010.69 1011.52 1012.21 1012.72 1013.01 1013.14 1013.16 1013.17 1013.26 1013.46 1013.81 1014.27 1014.79 1015.30 1015.76 1016.11 1016.33 1016.46 1016.52 1016.58 1016.67 1016.82
1007.27 1006.82 1006.35 1006.02 1005.96 1006.24 1006.88 1007.80 1008.85 1009.86 1010.67 1011.15 1011.22 1010.92 1010.33 1009.61 1008.92 1008.44 1008.28 1008.47 1009.00 1009.77 1010.67 1011.54 1012.28 1012.81 1013.12 1013.24 1013.26 1013.25 1013.31 1013.50 1013.83 1014.28 1014.79 1015.31 1015.77 1016.12 1016.34 1016.45 1016.48 1016.51 1016.56 1016.69
1006.48 1006.10 1005.77 1005.62 1005.76 1006.24 1007.04 1008.08 1009.21 1010.25 1011.03 1011.44 1011.43 1011.03 1010.34 1009.53 1008.78 1008.26 1008.07 1008.27 1008.81 1009.62 1010.55 1011.47 1012.25 1012.82 1013.15 1013.29 1013.31 1013.29 1013.33 1013.50 1013.80 1014.23 1014.73 1015.23 1015.68 1016.02 1016.23 1016.33 1016.35 1016.35 1016.39 1016.50
1005.73 1005.47 1005.30 1005.33 1005.65 1006.29 1007.21 1008.32 1009.46 1010.46 1011.17 1011.49 1011.38 1010.90 1010.14 1009.28 1008.50 1007.96 1007.76 1007.96 1008.51 1009.33 1010.28 1011.22 1012.03 1012.63 1012.99 1013.16 1013.19 1013.18 1013.22 1013.36 1013.64 1014.04 1014.50 1014.98 1015.41 1015.74 1015.95 1016.05 1016.08 1016.08 1016.12 1016.23
1005.10 1004.97 1004.96 1005.16 1005.62 1006.36 1007.33 1008.43 1009.51 1010.42 1011.02 1011.24 1011.05 1010.50 1009.71 1008.84 1008.06 1007.52 1007.33 1007.52 1008.06 1008.86 1009.79 1010.72 1011.53 1012.14 1012.54 1012.74 1012.81 1012.83 1012.88 1013.02 1013.28 1013.64 1014.08 1014.53 1014.94 1015.26 1015.47 1015.59 1015.64 1015.67 1015.73 1015.86
1004.59 1004.60 1004.73 1005.06 1005.61 1006.38 1007.32 1008.34 1009.30 1010.07 1010.55 1010.66 1010.41 1009.84 1009.07 1008.23 1007.50 1007.00 1006.81 1006.98 1007.47 1008.21 1009.07 1009.94 1010.72 1011.32 1011.74 1011.98 1012.10 1012.17 1012.26 1012.43 1012.69 1013.04 1013.45 1013.88 1014.27 1014.59 1014.81 1014.96 1015.05 1015.13 1015.23 1015.40
1004.20 1004.33 1004.58 1004.98 1005.56 1006.30 1007.14 1008.02 1008.81 1009.42 1009.77 1009.80 1009.52 1008.99 1008.28 1007.54 1006.89 1006.44 1006.27 1006.41 1006.82 1007.45 1008.20 1008.98 1009.67 1010.24 1010.66 1010.95 1011.14 1011.28 1011.44 1011.66 1011.95 1012.31 1012.71 1013.12 1013.50 1013.81 1014.05 1014.23 1014.37 1014.50 1014.66 1014.88
1003.93 1004.15 1004.47 1004.91 1005.45 1006.09 1006.79 1007.48 1008.08 1008.52 1008.74 1008.72 1008.46 1008.01 1007.43 1006.83 1006.31 1005.95 1005.81 1005.91 1006.24 1006.73 1007.33 1007.96 1008.55 1009.07 1009.48 1009.80 1010.06 1010.30 1010.56 1010.85 1011.19 1011.57 1011.98 1012.37 1012.73 1013.04 1013.30 1013.50 1013.69 1013.87 1014.08 1014.34
1003.78 1004.07 1004.42 1004.83 1005.30 1005.80 1006.30 1006.77 1007.16 1007.44 1007.56 1007.52 1007.33 1007.01 1006.62 1006.22 1005.87 1005.64 1005.55 1005.63 1005.86 1006.21 1006.64 1007.11 1007.57 1008.00 1008.40 1008.75 1009.09 1009.43 1009.78 1010.17 1010.57 1010.99 1011.40 1011.78 1012.12 1012.42 1012.67 1012.88 1013.09 1013.31 1013.56 1013.85
1003.80 1004.12 1004.46 1004.81 1005.15 1005.47 1005.75 1005.99 1006.17 1006.29 1006.34 1006.32 1006.23 1006.09 1005.93 1005.77 1005.64 1005.57 1005.57 1005.65 1005.81 1006.03 1006.30 1006.61 1006.93 1007.28 1007.64 1008.02 1008.42 1008.86 1009.31 1009.78 1010.25 1010.70 1011.12 1011.48 1011.79 1012.04 1012.26 1012.47 1012.67 1012.90 1013.16 1013.46
1004.04 1004.36 1004.66 1004.91 1005.09 1005.20 1005.25 1005.25 1005.23 1005.20 1005.19 1005.20 1005.23 1005.30 1005.40 1005.52 1005.64 1005.78 1005.91 1006.04 1006.16 1006.29 1006.42 1006.58 1006.79 1007.05 1007.37 1007.76 1008.22 1008.73 1009.27 1009.82 1010.34 1010.81 1011.21 1011.54 1011.80 1012.00 1012.16 1012.32 1012.49 1012.70 1012.95 1013.24
1004.56 1004.85 1005.08 1005.21 1005.21 1005.10 1004.91 1004.67 1004.44 1004.27 1004.20 1004.24 1004.41 1004.69 1005.05 1005.45 1005.85 1006.22 1006.52 1006.74 1006.88 1006.96 1007.01 1007.07 1007.17 1007.36 1007.65 1008.04 1008.53 1009.10 1009.70 1010.30 1010.85 1011.32 1011.70 1011.98 1012.17 1012.29 1012.38 1012.47 1012.59 1012.75 1012.96 1013.21
1005.38 1005.63 1005.77 1005.75 1005.56 1005.22 1004.79 1004.31 1003.88 1003.57 1003.43 1003.49 1003.77 1004.23 1004.83 1005.51 1006.19 1006.80 1007.29 1007.65 1007.86 1007.96 1007.98 1007.98 1008.03 1008.17 1008.43 1008.82 1009.32 1009.92 1010.55 1011.17 1011.73 1012.18 1012.52 1012.73 1012.84 1012.88 1012.88 1012.89 1012.93 1013.03 1013.19 1013.40
1006.45 1006.64 1006.67 1006.50 1006.13 1005.57 1004.90 1004.21 1003.58 1003.12 1002.89 1002.95 1003.30 1003.90 1004.70 1005.61 1006.53 1007.38 1008.08 1008.60 1008.93 1009.10 1009.15 1009.15 1009.19 1009.30 1009.55 1009.93 1010.44 1011.04 1011.68 1012.29 1012.83 1013.25 1013.54 1013.68 1013.71 1013.66 1013.58 1013.50 1013.47 1013.50 1013.60 1013.77
1007.63 1007.75 1007.67 1007.36 1006.82 1006.08 1005.21 1004.31 1003.51 1002.90 1002.58 1002.60 1002.97 1003.66 1004.60 1005.68 1006.81 1007.86 1008.76 1009.45 1009.92 1010.20 1010.32 1010.38 1010.43 1010.56 1010.80 1011.18 1011.68 1012.26 1012.89 1013.48 1013.98 1014.36 1014.59 1014.67 1014.63 1014.51 1014.35 1014.20 1014.11 1014.08 1014.14 1014.26
1008.71 1008.77 1008.61 1008.18 1007.51 1006.62 1005.60 1004.55 1003.60 1002.88 1002.47 1002.43 1002.79 1003.50 1004.51 1005.71 1006.97 1008.18 1009.24 1010.09 1010.71 1011.11 1011.34 1011.47 1011.58 1011.74 1012.00 1012.37 1012.85 1013.42 1014.01 1014.56 1015.02 1015.35 1015.53 1015.56 1015.47 1015.29 1015.08 1014.88 1014.74 1014.68 1014.70 1014.81
1009.51 1009.52 1009.29 1008.79 1008.04 1007.07 1005.97 1004.84 1003.81 1003.01 1002.53 1002.44 1002.76 1003.46 1004.48 1005.72 1007.05 1008.35 1009.53 1010.50 1011.25 1011.78 1012.12 1012.35 1012.53 1012.73 1013.00 1013.37 1013.83 1014.36 1014.91 1015.41 1015.83 1016.11 1016.25 1016.24 1016.11 1015.90 1015.65 1015.43 1015.27 1015.19 1015.21 1015.31
1009.86 1009.83 1009.57 1009.05 1008.29 1007.33 1006.23 1005.12 1004.09 1003.28 1002.78 1002.65 1002.93 1003.60 1004.58 1005.81 1007.14 1008.47 1009.70 1010.75 1011.59 1012.22 1012.66 1012.97 1013.22 1013.47 1013.76 1014.12 1014.56 1015.04 1015.53 1015.98 1016.34 1016.58 1016.67 1016.64 1016.49 1016.26 1016.01 1015.79 1015.62 1015.55 1015.57 1015.68
1009.69 1009.65 1009.40 1008.92 1008.23 1007.36 1006.37 1005.36 1004.43 1003.69 1003.23 1003.11 1003.37 1003.99 1004.91 1006.07 1007.35 1008.65 1009.87 1010.95 1011.84 1012.52 1013.03 1013.41 1013.71 1013.99 1014.29 1014.64 1015.03 1015.46 1015.88 1016.27 1016.57 1016.75 1016.81 1016.75 1016.59 1016.37 1016.13 1015.92 1015.77 1015.71 1015.75 1015.88
1009.07 1009.04 1008.84 1008.46 1007.91 1007.21 1006.42 1005.60 1004.86 1004.27 1003.92 1003.86 1004.12 1004.70 1005.55 1006.62 1007.80 1009.02 1010.18 1011.22 1012.09 1012.80 1013.34 1013.75 1014.08 1014.37 1014.66 1014.98 1015.32 1015.68 1016.03 1016.34 1016.56 1016.69 1016.71 1016.63 1016.47 1016.25 1016.03 1015.84 1015.72 1015.69 1015.75 1015.90
1008.20 1008.19 1008.07 1007.83 1007.47 1007.00 1006.47 1005.92 1005.42 1005.05 1004.87 1004.91 1005.21 1005.76 1006.54 1007.49 1008.55 1009.64 1010.69 1011.65 1012.47 1013.14 1013.67 1014.09 1014.42 1014.70 1014.97 1015.24 1015.52 1015.80 1016.06 1016.28 1016.43 1016.50 1016.47 1016.37 1016.20 1015.99 1015.79 1015.63 1015.54 1015.54 1015.62 1015.79
Thickness
5815 5802 5798 5809 5821 5820 5817 5811 5804 5811 5828 5817 5807 5800 5798 5797 5790 5779 5769 5762 5754 5749 5747 5746 5744 5742 5739 5738 5736 5736 5735 5734 5736 5736 5736 5734 5734 5736 5737 5736 5734 5733 5733 5732
5800 5799 5817 5829 5830 5824 5817 5807 5806 5815 5829 5818 5805 5799 5799 5796 5788 5783 5771 5763 5757 5750 5744 5742 5740 5738 5735 5734 5734 5733 5732 5732 5734 5734 5735 5735 5735 5735 5736 5735 5732 5732 5732 5731
5795 5812 5832 5827 5820 5815 5814 5809 5809 5809 5819 5819 5800 5783 5787 5791 5792 5787 5780 5772 5763 5754 5746 5740 5737 5734 5732 5731 5731 5732 5731 5731 5733 5733 5733 5734 5733 5733 5733 5731 5731 5732 5731 5730
5808 5826 5828 5821 5817 5817 5806 5823 5819 5812 5799 5783 5783 5759 5772 5785 5785 5784 5780 5774 5767 5761 5752 5744 5738 5733 5732 5731 5732 5732 5730 5730 5731 5731 5731 5730 5728 5729 5732 5733 5732 5731 5730 5730
5806 5822 5821 5815 5820 5823 5817 5828 5819 5806 5785 5764 5762 5757 5768 5785 5777 5780 5781 5778 5772 5765 5757 5749 5743 5738 5735 5734 5733 5731 5729 5728 5729 5730 5731 5730 5731 5732 5734 5734 5731 5730 5730 5730
5814 5832 5833 5828 5834 5833 5829 5819 5812 5796 5769 5729 5743 5754 5762 5781 5786 5786 5785 5782 5774 5768 5761 5753 5748 5742 5738 5736 5734 5732 5729 5728 5729 5730 5731 5730 5731 5732 5732 5731 5729 5729 5730 5730
5797 5815 5831 5836 5820 5824 5818 5794 5772 5761 5745 5733 5751 5758 5769 5794 5803 5797 5789 5783 5777 5772 5764 5756 5749 5743 5739 5736 5734 5733 5730 5728 5729 5730 5731 5731 5731 5732 5731 5731 5730 5730 5731 5730
5784 5790 5818 5827 5818 5809 5811 5800 5770 5750 5749 5756 5757 5749 5776 5800 5807 5805 5798 5789 5781 5775 5768 5761 5755 5748 5743 5740 5738 5735 5733 5731 5731 5731 5731 5732 5732 5732 5733 5732 5733 5732 5733 5735
5790 5794 5827 5833 5833 5824 5806 5803 5810 5785 5780 5769 5752 5750 5763 5789 5796 5798 5794 5788 5782 5778 5773 5766 5760 5754 5748 5745 5743 5740 5736 5734 5734 5734 5733 5733 5733 5733 5734 5734 5734 5734 5734 5735
5807 5793 5816 5830 5829 5827 5822 5813 5799 5782 5760 5751 5749 5739 5742 5757 5773 5789 5790 5787 5784 5781 5777 5771 5765 5760 5756 5752 5748 5746 5742 5739 5738 5737 5736 5735 5735 5735 5735 5734 5734 5734 5735 5734
5819 5797 5803 5815 5804 5798 5804 5800 5794 5787 5780 5756 5741 5740 5768 5768 5778 5788 5793 5793 5788 5785 5781 5776 5771 5767 5763 5759 5754 5750 5746 5743 5741 5740 5739 5739 5737 5737 5736 5734 5734 5734 5734 5733
5823 5807 5792 5803 5818 5817 5805 5798 5793 5771 5766 5770 5762 5753 5785 5785 5789 5793 5795 5796 5792 5789 5786 5781 5776 5771 5767 5762 5757 5753 5750 5747 5745 5743 5741 5739 5739 5737 5735 5734 5734 5734 5732 5731
5815 5799 5776 5780 5788 5789 5784 5794 5796 5791 5780 5769 5757 5756 5785 5787 5787 5790 5792 5791 5790 5788 5787 5784 5778 5773 5769 5766 5762 5758 5754 5751 5749 5746 5743 5740 5738 5736 5735 5735 5734 5733 5731 5729
5814 5794 5780 5769 5767 5762 5757 5772 5788 5786 5775 5767 5765 5762 5772 5774 5775 5779 5783 5786 5788 5787 5784 5781 5776 5772 5769 5767 5764 5761 5757 5756 5752 5749 5744 5740 5738 5737 5736 5734 5733 5731 5729 5726
5802 5786 5789 5792 5790 5781 5771 5772 5782 5783 5785 5777 5777 5773 5771 5774 5774 5777 5781 5783 5782 5779 5779 5777 5773 5770 5767 5764 5763 5760 5757 5755 5754 5749 5743 5741 5739 5737 5735 5732 5730 5728 5726 5724
5786 5781 5784 5782 5794 5789 5779 5785 5787 5789 5791 5789 5786 5773 5779 5778 5775 5775 5776 5775 5773 5772 5772 5773 5771 5768 5764 5762 5759 5756 5754 5753 5750 5746 5742 5740 5736 5733 5730 5728 5726 5724 5722 5719
5762 5764 5764 5766 5784 5783 5772 5788 5792 5790 5795 5790 5776 5773 5775 5767 5764 5766 5767 5767 5765 5764 5763 5762 5761 5760 5759 5757 5755 5752 5749 5748 5743 5738 5735 5732 5729 5725 5722 5721 5719 5716 5714 5712
5743 5739 5751 5759 5762 5742 5777 5805 5801 5794 5791 5791 5782 5776 5770 5761 5758 5759 5761 5757 5754 5752 5752 5751 5750 5750 5749 5748 5745 5743 5740 5737 5733 5727 5724 5723 5721 5716 5713 5711 5709 5707 5705 5702
5746 5737 5738 5747 5746 5751 5773 5784 5782 5775 5772 5782 5776 5768 5761 5756 5752 5747 5750 5749 5744 5742 5740 5739 5739 5737 5734 5732 5731 5727 5724 5720 5716 5711 5708 5707 5706 5704 5701 5699 5697 5696 5694 5692
5740 5737 5733 5738 5735 5729 5750 5767 5776 5768 5749 5771 5771 5763 5756 5749 5734 5727 5736 5736 5733 5731 5729 5726 5724 5722 5717 5715 5714 5711 5706 5703 5699 5696 5692 5690 5689 5687 5685 5684 5684 5682 5681 5680
5724 5727 5733 5737 5735 5738 5749 5757 5758 5730 5734 5764 5768 5762 5755 5747 5737 5730 5728 5723 5720 5717 5715 5712 5709 5704 5701 5699 5697 5693 5690 5687 5684 5682 5679 5675 5674 5673 5671 5670 5669 5668 5668 5666
5706 5716 5724 5734 5727 5718 5739 5744 5733 5733 5751 5760 5759 5754 5745 5736 5728 5722 5717 5712 5708 5704 5701 5699 5694 5690 5687 5685 5682 5677 5673 5672 5671 5668 5665 5662 5661 5661 5660 5657 5656 5656 5655 5653
5687 5697 5706 5713 5715 5724 5734 5730 5735 5743 5743 5750 5749 5743 5736 5726 5718 5711 5705 5701 5697 5693 5688 5685 5680 5676 5673 5671 5668 5663 5660 5659 5657 5654 5652 5651 5649 5648 5646 5645 5644 5644 5642 5640
5685 5695 5697 5701 5709 5717 5725 5730 5730 5735 5741 5745 5742 5736 5728 5717 5709 5701 5695 5689 5684 5679 5675 5671 5667 5662 5658 5656 5652 5649 5647 5646 5643 5641 5640 5639 5638 5637 5635 5633 5633 5631 5629 5625
5682 5693 5696 5698 5703 5709 5711 5717 5723 5730 5733 5732 5730 5725 5717 5708 5698 5690 5682 5677 5673 5668 5664 5659 5654 5650 5646 5644 5641 5640 5637 5634 5630 5629 5628 5628 5628 5627 5625 5623 5622 5620 5618 5614
5692 5693 5693 5689 5697 5698 5700 5713 5721 5719 5717 5717 5714 5708 5702 5696 5686 5679 5671 5666 5662 5657 5652 5648 5644 5641 5637 5634 5630 5628 5625 5622 5618 5616 5616 5616 5616 5615 5614 5612 5611 5609 5606 5602